Flugplatz Herten-Rheinfelden

EDTR · 巴登-符腾堡, 德国

METAR的历史 EDTR · Flugplatz Herten-Rheinfelden

下面你可以看到过去几天的METARs。 选择年份以浏览从2007年开始的旧METAR。

2024年7月15日

时间 代码 天气 温度 能见度 天花板 METAR/SPECI
05:00
V
15 °C 10 km+ - 300° 300° 1 kt METAR LFSB 150300Z AUTO 30001KT CAVOK 15/14 Q1014 NOSIG
04:30
V
15 °C 10 km+ - 270° 270° 2 kt METAR LFSB 150230Z AUTO 27002KT CAVOK 15/14 Q1014 NOSIG
04:00
V
15 °C 10 km+ - 250° 250° 2 kt METAR LFSB 150200Z AUTO 25002KT CAVOK 15/14 Q1014 NOSIG
03:30
V
15 °C 10 km+ - 250° 250° 2 kt METAR LFSB 150130Z AUTO 25002KT CAVOK 15/14 Q1014 NOSIG
03:00
V
15 °C 10 km+ - 360° 360° 0 kt METAR LFSB 150100Z AUTO 00000KT CAVOK 15/14 Q1014 NOSIG
02:30
V
15 °C 10 km+ - 220° 220° 2 kt METAR LFSB 150030Z AUTO 22002KT CAVOK 15/15 Q1014 NOSIG
02:00
V
15 °C 10 km+ - Var Var 2 kt METAR LFSB 150000Z AUTO VRB02KT CAVOK 15/15 Q1014 NOSIG
01:30
V
16 °C 10 km+ - 250° 250° 2 kt METAR LFSB 142330Z AUTO 25002KT CAVOK 16/15 Q1014 NOSIG
01:00
V
17 °C 10 km+ - 230° 230° 1 kt METAR LFSB 142300Z AUTO 23001KT CAVOK 17/16 Q1014 NOSIG
00:30
V
17 °C 10 km+ - 240° 240° 3 kt METAR LFSB 142230Z AUTO 24003KT CAVOK 17/16 Q1014 NOSIG
00:00
V
17 °C 10 km+ - 220° 220° 2 kt METAR LFSB 142200Z AUTO 22002KT CAVOK 17/16 Q1014 NOSIG

2024年7月14日

时间 代码 天气 温度 能见度 天花板 METAR/SPECI
23:30
V
18 °C 10 km+ - 230° 230° 2 kt METAR LFSB 142130Z AUTO 23002KT CAVOK 18/17 Q1014 NOSIG
23:00
V
19 °C 10 km+ - 320° 320° 3 kt METAR LFSB 142100Z AUTO 32003KT CAVOK 19/17 Q1014 NOSIG
22:30
V
20 °C 10 km+ - Var Var 2 kt METAR LFSB 142030Z AUTO VRB02KT CAVOK 20/17 Q1014 NOSIG
22:00
V
21 °C 10 km+ - 160° 160° 3 kt METAR LFSB 142000Z AUTO 16003KT CAVOK 21/16 Q1014 NOSIG
21:30
V
22 °C 10 km+ - 230° 230° 2 kt METAR LFSB 141930Z AUTO 23002KT CAVOK 22/17 Q1014 NOSIG
21:00
V
22 °C 10 km+ - 250° 250° 1 kt METAR LFSB 141900Z AUTO 25001KT CAVOK 22/18 Q1014 NOSIG
20:30
V
22 °C 10 km+ - 360° 360° 0 kt METAR LFSB 141830Z AUTO 00000KT CAVOK 22/18 Q1014 NOSIG
20:00
V
23 °C 10 km+ - 300° 300° 2 kt METAR LFSB 141800Z AUTO 30002KT CAVOK 23/17 Q1014 NOSIG
19:30
V
23 °C 10 km+ - 300° 300° 3 kt METAR LFSB 141730Z AUTO 30003KT CAVOK 23/17 Q1014 NOSIG
19:00
V
24 °C 10 km+ - 300° 300° 3 kt METAR LFSB 141700Z AUTO 30003KT CAVOK 24/16 Q1014 NOSIG
18:30
V
24 °C 10 km+ - 330° 330° 3 kt METAR LFSB 141630Z AUTO 33003KT CAVOK 24/16 Q1014 NOSIG
18:00
V
24 °C 10 km+ - Var Var 3 kt METAR LFSB 141600Z AUTO VRB03KT CAVOK 24/16 Q1013 NOSIG
17:30
V
25 °C 10 km+ - 340° 340° 3 kt METAR LFSB 141530Z AUTO 34003KT CAVOK 25/15 Q1013 NOSIG
17:00
V
25 °C 10 km+ - 030° 030° 3 kt METAR LFSB 141500Z AUTO 03003KT 360V080 CAVOK 25/14 Q1014 NOSIG
16:30
V
25 °C 10 km+ - 030° 030° 3 kt METAR LFSB 141430Z AUTO 03003KT 350V080 CAVOK 25/14 Q1014 NOSIG
16:00
V
25 °C 10 km+ - Var Var 3 kt METAR LFSB 141400Z AUTO VRB03KT CAVOK 25/13 Q1014 NOSIG
15:30
V
25 °C 10 km+ - 020° 020° 4 kt METAR LFSB 141330Z AUTO 02004KT 340V050 CAVOK 25/14 Q1014 NOSIG
15:00
V
25 °C 10 km+ - 050° 050° 5 kt METAR LFSB 141300Z AUTO 05005KT 020V080 CAVOK 25/14 Q1014 NOSIG
14:30
V
26 °C 10 km+ - 300° 300° 4 kt METAR LFSB 141230Z AUTO 30004KT 220V350 CAVOK 26/14 Q1014 NOSIG
14:00
V
25 °C 10 km+ - 040° 040° 3 kt METAR LFSB 141200Z AUTO 04003KT 350V110 CAVOK 25/13 Q1014 NOSIG
13:30
V
25 °C 10 km+ - Var Var 2 kt METAR LFSB 141130Z AUTO VRB02KT CAVOK 25/12 Q1014 NOSIG
13:00
V
24 °C 10 km+ - Var Var 4 kt METAR LFSB 141100Z AUTO VRB04KT CAVOK 24/12 Q1014 NOSIG
12:30
V
25 °C 10 km+ - Var Var 3 kt METAR LFSB 141030Z AUTO VRB03KT 9999 FEW014 25/13 Q1014 NOSIG
12:00
V
24 °C 10 km+ - Var Var 3 kt METAR LFSB 141000Z AUTO VRB03KT CAVOK 24/13 Q1015 NOSIG
11:30
V
23 °C 10 km+ - 110° 110° 5 kt METAR LFSB 140930Z AUTO 11005KT 040V150 CAVOK 23/13 Q1015 NOSIG
11:00
V
23 °C 10 km+ - Var Var 3 kt METAR LFSB 140900Z AUTO VRB03KT CAVOK 23/13 Q1015 NOSIG
10:30
V
22 °C 10 km+ - Var Var 2 kt METAR LFSB 140830Z AUTO VRB02KT CAVOK 22/14 Q1015 NOSIG
10:00
V
21 °C 10 km+ - 130° 130° 3 kt METAR LFSB 140800Z AUTO 13003KT 060V200 CAVOK 21/13 Q1015 NOSIG
09:30
V
19 °C 10 km+ - 150° 150° 5 kt METAR LFSB 140730Z AUTO 15005KT 120V190 CAVOK 19/14 Q1015 NOSIG
09:00
V
18 °C 10 km+ - 120° 120° 5 kt METAR LFSB 140700Z AUTO 12005KT 090V150 CAVOK 18/13 Q1015 NOSIG
08:30
V
17 °C 10 km+ - 130° 130° 5 kt METAR LFSB 140630Z AUTO 13005KT 100V160 CAVOK 17/13 Q1015 NOSIG
08:00
V
16 °C 10 km+ - 130° 130° 5 kt METAR LFSB 140600Z AUTO 13005KT 100V160 CAVOK 16/13 Q1015 NOSIG
07:30
V
15 °C 10 km+ - 140° 140° 4 kt METAR LFSB 140530Z AUTO 14004KT 090V180 CAVOK 15/13 Q1015 NOSIG
07:00
V
14 °C 10 km+ - 160° 160° 4 kt METAR LFSB 140500Z AUTO 16004KT CAVOK 14/13 Q1015 NOSIG
06:30
V
13 °C 10 km+ - 170° 170° 3 kt METAR LFSB 140430Z AUTO 17003KT 100V200 CAVOK 13/12 Q1015 NOSIG
06:00
V
12 °C 10 km+ - Var Var 2 kt METAR LFSB 140400Z AUTO VRB02KT CAVOK 12/12 Q1015 TEMPO 3000 BR
05:30
V
12 °C 10 km+ - 250° 250° 2 kt METAR LFSB 140330Z AUTO 25002KT CAVOK 12/11 Q1015 TEMPO 3000 BR
05:00
V
11 °C 10 km+ - 310° 310° 1 kt METAR LFSB 140300Z AUTO 31001KT CAVOK 11/11 Q1015 TEMPO 3000 BR
04:30
V
12 °C 10 km+ - 360° 360° 0 kt METAR LFSB 140230Z AUTO 00000KT CAVOK 12/11 Q1015 TEMPO 3000 BR
04:00
V
12 °C 10 km+ - 360° 360° 0 kt METAR LFSB 140200Z AUTO 00000KT CAVOK 12/11 Q1015 TEMPO 3000 BR
03:30
V
12 °C 10 km+ - 360° 360° 0 kt METAR LFSB 140130Z AUTO 00000KT CAVOK 12/12 Q1015 TEMPO 3000 BR
03:00
V
12 °C 10 km+ - 360° 360° 0 kt METAR LFSB 140100Z AUTO 00000KT CAVOK 12/12 Q1014 TEMPO 3000 BR
02:30
V
13 °C 10 km+ - 360° 360° 0 kt METAR LFSB 140030Z AUTO 00000KT CAVOK 13/12 Q1015 TEMPO 3000 BR
02:00
V
13 °C 10 km+ - Var Var 2 kt METAR LFSB 140000Z AUTO VRB02KT CAVOK 13/12 Q1015 TEMPO 3000 BR
01:30
V
14 °C 10 km+ - 290° 290° 2 kt METAR LFSB 132330Z AUTO 29002KT CAVOK 14/12 Q1015 NOSIG
01:00
V
14 °C 10 km+ - 320° 320° 2 kt METAR LFSB 132300Z AUTO 32002KT CAVOK 14/12 Q1015 NOSIG
00:30
V
14 °C 10 km+ - 320° 320° 5 kt METAR LFSB 132230Z AUTO 32005KT CAVOK 14/12 Q1015 NOSIG
00:00
V
15 °C 10 km+ - 330° 330° 3 kt METAR LFSB 132200Z AUTO 33003KT CAVOK 15/12 Q1015 NOSIG

2024年7月13日

时间 代码 天气 温度 能见度 天花板 METAR/SPECI
23:30
V
15 °C 10 km+ - 320° 320° 4 kt METAR LFSB 132130Z AUTO 32004KT CAVOK 15/12 Q1014 NOSIG
23:00
V
16 °C 10 km+ - 320° 320° 5 kt METAR LFSB 132100Z AUTO 32005KT CAVOK 16/13 Q1014 NOSIG
22:30
V
17 °C 10 km+ - 320° 320° 6 kt METAR LFSB 132030Z AUTO 32006KT CAVOK 17/13 Q1014 NOSIG
22:00
V
17 °C 10 km+ - 320° 320° 6 kt METAR LFSB 132000Z AUTO 32006KT CAVOK 17/12 Q1014 NOSIG
21:30
V
17 °C 10 km+ - 240° 240° 3 kt METAR LFSB 131930Z AUTO 24003KT CAVOK 17/13 Q1013 NOSIG
21:00
V
19 °C 10 km+ - 250° 250° 4 kt METAR LFSB 131900Z AUTO 25004KT CAVOK 19/13 Q1013 NOSIG
20:30
V
23 °C 10 km+ - 280° 280° 3 kt METAR LFSB 131830Z AUTO 28003KT CAVOK 23/11 Q1013 NOSIG
20:00
V
23 °C 10 km+ - 310° 310° 3 kt METAR LFSB 131800Z AUTO 31003KT CAVOK 23/09 Q1013 NOSIG
19:30
V
24 °C 10 km+ - 270° 270° 5 kt METAR LFSB 131730Z AUTO 27005KT 240V310 CAVOK 24/08 Q1013 NOSIG
19:00
V
24 °C 10 km+ - 290° 290° 7 kt METAR LFSB 131700Z AUTO 29007KT 240V310 CAVOK 24/08 Q1013 TEMPO FEW040TCU
18:30
V
24 °C 10 km+ - 280° 280° 8 kt METAR LFSB 131630Z AUTO 28008KT 240V330 CAVOK 24/09 Q1013 TEMPO FEW040TCU
18:00
V
24 °C 10 km+ - 280° 280° 6 kt METAR LFSB 131600Z AUTO 28006KT 230V330 CAVOK 24/10 Q1014 TEMPO FEW040TCU
17:30
V
24 °C 10 km+ - 230° 230° 6 kt METAR LFSB 131530Z AUTO 23006KT 190V260 CAVOK 24/11 Q1013 TEMPO FEW040TCU
17:00
V
23 °C 10 km+ - 270° 270° 7 kt METAR LFSB 131500Z AUTO 27007KT 190V310 CAVOK 23/09 Q1014 TEMPO FEW040TCU
16:30
V
24 °C 10 km+ - 280° 280° 6 kt METAR LFSB 131430Z AUTO 28006KT 220V340 CAVOK 24/11 Q1014 TEMPO FEW040TCU
16:00
V
23 °C 10 km+ - 270° 270° 7 kt METAR LFSB 131400Z AUTO 27007KT 200V310 CAVOK 23/10 Q1014 TEMPO FEW040TCU
15:30
V
23 °C 10 km+ - 270° 270° 6 kt METAR LFSB 131330Z AUTO 27006KT 230V320 CAVOK 23/11 Q1014 TEMPO FEW040TCU
15:00
V
23 °C 10 km+ - 240° 240° 6 kt METAR LFSB 131300Z AUTO 24006KT 200V290 CAVOK 23/11 Q1014 TEMPO FEW040TCU
14:30
V
23 °C 10 km+ - Var Var 6 kt METAR LFSB 131230Z AUTO VRB06KT CAVOK 23/13 Q1014 TEMPO FEW040TCU
14:00
V
22 °C 10 km+ - 280° 280° 7 kt METAR LFSB 131200Z AUTO 28007KT 240V320 9999 FEW038 22/12 Q1014 TEMPO FEW040TCU
13:30
V
22 °C 10 km+ - 270° 270° 5 kt METAR LFSB 131130Z AUTO 27005KT 200V360 9999 FEW040 22/13 Q1015 TEMPO FEW040TCU
13:00
V
21 °C 10 km+ - 230° 230° 5 kt METAR LFSB 131100Z AUTO 23005KT 200V300 9999 FEW041 21/12 Q1015 NOSIG
12:30
V
21 °C 10 km+ - 260° 260° 6 kt METAR LFSB 131030Z AUTO 26006KT 210V310 9999 FEW042 21/11 Q1015 NOSIG
12:00
V
21 °C 10 km+ 3.600 ft 260° 260° 6 kt METAR LFSB 131000Z AUTO 26006KT 200V310 9999 BKN036 BKN042 BKN054 21/13 Q1015 NOSIG
11:30
V
20 °C 10 km+ - 270° 270° 6 kt METAR LFSB 130930Z AUTO 27006KT 200V340 9999 FEW029 20/13 Q1015 NOSIG
11:00
V
20 °C 10 km+ - 260° 260° 9 kt METAR LFSB 130900Z AUTO 26009KT 210V300 9999 FEW028 20/14 Q1015 NOSIG
10:30
V
19 °C 10 km+ 5.800 ft 250° 250° 8 kt METAR LFSB 130830Z AUTO 25008KT 200V310 9999 SCT027 SCT040 BKN058 19/14 Q1015 NOSIG
10:00
V
19 °C 10 km+ - 240° 240° 8 kt METAR LFSB 130800Z AUTO 24008KT 200V260 9999 SCT024 SCT030 19/14 Q1015 NOSIG
09:30
V
18 °C 10 km+ - 260° 260° 7 kt METAR LFSB 130730Z AUTO 26007KT 230V290 9999 SCT022 SCT034 18/14 Q1015 NOSIG
09:00
V
18 °C 10 km+ - 240° 240° 7 kt METAR LFSB 130700Z AUTO 24007KT 210V280 9999 FEW019 18/14 Q1015 NOSIG
08:30
V
17 °C 10 km+ - 240° 240° 8 kt METAR LFSB 130630Z AUTO 24008KT CAVOK 17/14 Q1015 NOSIG
08:00
V
16 °C 10 km+ 9.200 ft 260° 260° 7 kt METAR LFSB 130600Z AUTO 26007KT 9999 FEW013 SCT060 BKN092 16/14 Q1015 NOSIG
07:30
V
16 °C 10 km+ 5.600 ft Var Var 2 kt METAR LFSB 130530Z AUTO VRB02KT 9999 SCT012 BKN056 BKN094 16/14 Q1015 NOSIG
07:00
V
16 °C 10 km+ 5.600 ft 360° 360° 0 kt METAR LFSB 130500Z AUTO 00000KT 9999 FEW012 BKN056 BKN100 16/13 Q1015 NOSIG
06:30
V
15 °C 10 km+ 5.200 ft 360° 360° 0 kt METAR LFSB 130430Z AUTO 00000KT 9999 OVC052 15/13 Q1015 NOSIG
06:00
V
15 °C 10 km+ 5.200 ft Var Var 2 kt METAR LFSB 130400Z AUTO VRB02KT 9999 OVC052 15/14 Q1015 NOSIG
05:30
V
15 °C 10 km+ 5.200 ft 260° 260° 4 kt METAR LFSB 130330Z AUTO 26004KT 190V330 9999 OVC052 15/14 Q1015 NOSIG
05:00
V
15 °C 10 km+ - 250° 250° 9 kt METAR LFSB 130300Z AUTO 25009KT CAVOK 15/14 Q1014 NOSIG
04:30
V
16 °C 10 km+ 5.600 ft 250° 250° 8 kt METAR LFSB 130230Z AUTO 25008KT 9999 BKN056 OVC068 16/14 Q1014 NOSIG
04:00
V
16 °C 10 km+ 5.400 ft 260° 260° 8 kt METAR LFSB 130200Z AUTO 26008KT 9999 OVC054 16/14 Q1014 NOSIG
03:30
V
16 °C 10 km+ 5.400 ft 250° 250° 9 kt METAR LFSB 130130Z AUTO 25009KT 9999 OVC054 16/14 Q1015 NOSIG
03:00
V
16 °C 10 km+ 5.600 ft 250° 250° 8 kt METAR LFSB 130100Z AUTO 25008KT 9999 BKN056 OVC070 16/14 Q1015 TEMPO 4500 SHRA FEW040CB
02:30
V
16 °C 10 km+ 5.400 ft 250° 250° 8 kt METAR LFSB 130030Z AUTO 25008KT 9999 OVC054 16/14 Q1015 TEMPO 4500 SHRA FEW040CB
02:00
V
16 °C 10 km+ - 260° 260° 8 kt METAR LFSB 130000Z AUTO 26008KT CAVOK 16/14 Q1015 TEMPO 4500 SHRA FEW040CB
01:30
V
17 °C 10 km+ 6.600 ft 250° 250° 8 kt METAR LFSB 122330Z AUTO 25008KT 9999 FEW056 OVC066 17/14 Q1015 TEMPO 4500 SHRA FEW040CB
01:00
V
17 °C 10 km+ - 240° 240° 8 kt METAR LFSB 122300Z AUTO 24008KT CAVOK 17/15 Q1015 TEMPO 4500 SHRA FEW040CB
00:30
V
17 °C 10 km+ 5.200 ft 240° 240° 8 kt METAR LFSB 122230Z AUTO 24008KT 9999 BKN052 OVC064 17/15 Q1015 TEMPO 4500 SHRA FEW040CB
00:00
V
17 °C 10 km+ 5.400 ft 240° 240° 8 kt METAR LFSB 122200Z AUTO 24008KT 9999 BKN054/// OVC064/// ///TCU 17/15 Q1015 TEMPO 4500 SHRA FEW040CB

2024年7月12日

时间 代码 天气 温度 能见度 天花板 METAR/SPECI
23:30
V
17 °C 10 km+ 5.600 ft 230° 230° 8 kt METAR LFSB 122130Z AUTO 23008KT 9999 BKN056 BKN072 OVC090 17/15 Q1015 TEMPO 4500 SHRA FEW040CB
23:00
V
17 °C 10 km+ 5.600 ft 230° 230° 6 kt METAR LFSB 122100Z AUTO 23006KT 9999 FEW049/// BKN056/// BKN068/// ///CB 17/15 Q1014 TEMPO 4500 SHRA
22:30
V
17 °C 10 km+ 8.200 ft 240° 240° 7 kt METAR LFSB 122030Z AUTO 24007KT 9999 -RA FEW013/// SCT062/// BKN082/// //////CB 17/16 Q1014 TEMPO 4500 SHRA
22:00
V
19 °C 10 km+ - 240° 240° 7 kt METAR LFSB 122000Z AUTO 24007KT 9999 RA ///CB 19/18 Q1014 TEMPO VRB15G25KT 4500 SHRA
21:30
V
19 °C 8 km 7.400 ft 220° 220° 5 kt METAR LFSB 121930Z AUTO 22005KT 160V260 8000 -RA FEW046/// BKN074/// OVC096/// ///CB 19/18 Q1013 TEMPO VRB15G25KT 4500 SHRA
21:00
V
19 °C 10 km+ 8.200 ft 210° 210° 5 kt METAR LFSB 121900Z AUTO 21005KT 9999 FEW012/// BKN082/// OVC100/// ///TCU 19/18 Q1013 TEMPO VRB15G25KT 2500 TSRA BKN030CB
20:30
V
19 °C 10 km+ 10.000 ft 160° 160° 4 kt METAR LFSB 121830Z AUTO 16004KT 9999 RA FEW012/// SCT052/// OVC100/// ///CB 19/18 Q1013 TEMPO VRB15G25KT 2500 TSRA
20:00
V
19 °C 10 km+ 10.000 ft 160° 160° 3 kt METAR LFSB 121800Z AUTO 16003KT 120V190 9999 -RA FEW048/// OVC100/// ///CB 19/18 Q1012 TEMPO VRB15G25KT 2500 TSRA
19:30
V
20 °C 10 km+ - 170° 170° 3 kt METAR LFSB 121730Z AUTO 17003KT 9999 R33/1200U -RA VCTS ///CB 20/18 Q1012 TEMPO VRB15G25KT 2500 TSRA
19:00
V
20 °C 10 km+ - 140° 140° 3 kt METAR LFSB 121700Z AUTO 14003KT 9999 ///CB 20/18 Q1012 TEMPO 28015G25KT 2500 TSRA
18:30
V
20 °C 10 km+ - 160° 160° 6 kt METAR LFSB 121630Z AUTO 16006KT CAVOK 20/18 Q1012 TEMPO 28015G25KT 2500 TSRA BKN030CB
18:00
V
21 °C 10 km+ - 160° 160° 4 kt METAR LFSB 121600Z AUTO 16004KT 130V190 9999 FEW009/// SCT150/// //////TCU 21/18 Q1012 TEMPO 28015G25KT 2500 TSRA BKN030CB
17:30
V
20 °C 10 km+ 11.000 ft 160° 160° 7 kt METAR LFSB 121530Z AUTO 16007KT 130V220 9999 FEW037/// SCT092/// BKN110/// ///CB 20/19 Q1012 TEMPO 28015G25KT 2500 TSRA
17:00
V
19 °C 8 km 10.000 ft 150° 150° 5 kt METAR LFSB 121500Z AUTO 15005KT 8000 RA VCTS FEW054/// OVC100/// ///CB 19/18 Q1012 TEMPO 28015G25KT 2500 TSRA
16:30
I
20 °C 2,8 km - 210° 210° 4 kt METAR LFSB 121430Z AUTO 21004KT 180V240 9000 2800 RA ///CB 20/18 Q1012 TEMPO 28015G25KT 2500 TSRA
16:00
V
20 °C 10 km+ 7.600 ft 220° 220° 6 kt METAR LFSB 121400Z AUTO 22006KT 200V260 9999 -RA VCTS FEW016/// BKN076/// BKN090/// ///CB 20/18 Q1013 TEMPO 28015G25KT 2500 TSRA
15:30
V
21 °C 10 km+ 9.400 ft 280° 280° 3 kt METAR LFSB 121330Z AUTO 28003KT 230V330 9999 -RA FEW030/// SCT054/// OVC094/// ///CB 21/18 Q1012 TEMPO 28015G25KT 2500 TSRA
15:00
V
21 °C 10 km+ 5.600 ft 190° 190° 4 kt METAR LFSB 121300Z AUTO 19004KT 140V230 9999 FEW025/// OVC056/// ///CB 21/18 Q1012 TEMPO 28015G25KT 2500 TSRA
14:30
V
21 °C 10 km+ 6.400 ft 260° 260° 10 kt METAR LFSB 121230Z AUTO 26010KT 220V280 9999 -TSRA SCT048/// BKN064/// BKN100/// ///CB 21/17 Q1012 TEMPO 28015G25KT 2500 TSRA
14:00
V
23 °C 10 km+ 4.600 ft 260° 260° 11 kt METAR LFSB 121200Z AUTO 26011KT 9999 RA FEW036/// BKN046/// BKN080/// ///CB 23/17 Q1012 TEMPO 28015G25KT 2500 TSRA
13:30
V
24 °C 10 km+ 4.000 ft 280° 280° 10 kt METAR LFSB 121130Z AUTO 28010KT 240V320 9999 SCT034/// BKN040/// BKN049/// ///CB 24/17 Q1012 TEMPO 28015G25KT 2500 TSRA
13:00
V
24 °C 10 km+ 3.300 ft 260° 260° 10 kt METAR LFSB 121100Z AUTO 26010KT 9999 BKN033/// BKN060/// BKN072/// ///CB 24/18 Q1012 TEMPO TSRA
12:30
V
24 °C 10 km+ 4.200 ft 270° 270° 11 kt METAR LFSB 121030Z AUTO 27011KT 9999 SCT033 BKN042 BKN060 24/18 Q1012 TEMPO TSRA FEW040CB
12:00
V
24 °C 10 km+ 3.300 ft 270° 270° 9 kt METAR LFSB 121000Z AUTO 27009KT 220V310 9999 FEW028 BKN033 BKN045 24/19 Q1012 TEMPO SHRA FEW040CB
11:30
M
24 °C 10 km+ 2.900 ft 260° 260° 8 kt METAR LFSB 120930Z AUTO 26008KT 220V290 9999 BKN029 BKN034 BKN041 24/19 Q1012 TEMPO SHRA FEW040CB
11:00
V
24 °C 10 km+ 3.600 ft 260° 260° 11 kt METAR LFSB 120900Z AUTO 26011KT 9999 SCT030 BKN036 BKN210 24/18 Q1012 TEMPO SHRA FEW040CB
10:30
V
24 °C 10 km+ 3.200 ft 270° 270° 10 kt METAR LFSB 120830Z AUTO 27010KT 240V310 9999 BKN032 BKN039 BKN240 24/19 Q1012 TEMPO SHRA FEW040CB
10:00
V
24 °C 10 km+ 3.500 ft 290° 290° 4 kt METAR LFSB 120800Z AUTO 29004KT 230V010 9999 BKN035 BKN230 24/18 Q1012 TEMPO SHRA FEW040CB
09:30
V
23 °C 10 km+ - 190° 190° 4 kt METAR LFSB 120730Z AUTO 19004KT 160V250 CAVOK 23/19 Q1012 TEMPO SHRA FEW040CB
09:00
V
22 °C 10 km+ - Var Var 2 kt METAR LFSB 120700Z AUTO VRB02KT CAVOK 22/20 Q1012 TEMPO SHRA FEW040CB
08:30
V
22 °C 10 km+ - 150° 150° 3 kt METAR LFSB 120630Z AUTO 15003KT 100V220 CAVOK 22/19 Q1012 TEMPO SHRA FEW040CB
08:00
V
21 °C 10 km+ - 150° 150° 3 kt METAR LFSB 120600Z AUTO 15003KT 120V190 CAVOK 21/19 Q1012 TEMPO SHRA FEW040CB BECMG 25010KT
报告变更